Theta_e
346 337 338 340 343 343 342 345 346 351 342 352 346 345 346 353 351 350 350 350 351 350 348 349 351 350 351 351 351 352 351 352 350 349 349 350 349 344 349 353 349 345 349
349 340 336 339 341 342 342 338 339 351 353 353 352 353 354 353 351 350 352 354 349 349 350 348 348 351 350 351 345 352 351 352 351 350 349 351 351 346 348 351 352 351 349
351 350 345 340 339 339 339 340 341 351 351 356 355 354 353 355 354 351 350 351 349 346 349 348 348 351 350 351 351 351 353 351 351 351 348 350 352 351 353 349 346 350 350
354 352 351 349 340 340 340 341 347 344 348 349 348 349 354 354 353 350 344 344 346 349 352 351 351 349 349 349 349 350 345 348 350 347 349 350 347 350 350 349 347 349 350
359 356 355 354 352 349 348 347 348 350 345 340 346 345 346 352 347 345 347 345 344 345 345 345 350 350 351 351 349 351 345 344 344 346 348 347 349 347 348 348 345 343 342
349 350 352 351 352 352 352 352 353 353 351 348 342 345 342 345 350 341 342 343 345 346 344 345 346 350 351 351 348 345 347 349 345 349 350 348 350 350 345 345 343 341 340
341 342 343 344 344 342 343 338 342 351 351 352 352 350 349 348 347 342 344 342 344 342 347 347 349 351 348 348 348 343 344 344 345 348 347 347 349 351 348 343 340 339 339
340 339 338 338 338 339 341 344 343 344 342 345 350 352 351 351 350 345 345 339 341 341 344 351 350 346 348 350 351 349 344 344 343 345 344 345 348 353 346 336 328 324 326
340 339 339 338 338 337 338 338 338 342 343 339 340 344 344 345 348 349 344 341 338 338 338 340 340 347 350 349 348 347 344 344 343 347 346 348 349 348 344 342 332 333 335
337 337 338 338 338 339 339 338 337 337 336 339 339 340 342 341 339 339 336 333 335 342 343 344 346 344 343 343 345 346 345 343 344 343 345 345 345 344 344 342 325 332 335
337 335 336 337 339 338 335 335 338 338 336 335 336 337 340 338 335 336 332 334 333 335 335 335 337 343 346 345 343 344 342 342 344 344 343 348 344 344 341 335 329 323 338
338 337 338 338 337 335 334 332 332 335 336 337 337 338 339 335 335 339 339 338 337 335 332 335 339 338 343 346 347 343 342 343 344 342 341 342 346 342 339 338 338 330 333
337 336 336 335 335 335 335 334 335 335 336 336 335 333 332 333 333 334 338 338 338 337 336 332 331 337 336 344 346 345 343 344 344 341 341 344 346 340 337 337 338 330 333
335 334 332 331 331 332 331 332 333 333 333 333 332 330 330 330 331 333 335 338 339 339 340 333 333 334 340 343 343 342 344 344 344 341 337 343 342 338 338 338 340 339 338
332 332 331 330 329 329 329 331 332 332 332 332 330 329 329 329 329 331 337 339 338 334 337 340 335 332 333 337 341 342 343 343 343 340 339 337 339 338 338 339 338 340 337
331 330 329 329 329 329 329 328 329 329 329 329 328 328 329 330 329 327 326 330 333 329 328 338 338 333 332 333 340 340 341 342 340 338 337 335 338 338 338 338 337 338 336
329 329 330 329 329 330 330 331 331 331 330 329 328 328 329 330 331 332 330 327 327 330 329 334 339 337 335 333 337 338 338 336 336 333 334 337 337 337 337 337 337 337 338
329 328 328 329 329 329 331 331 330 331 330 330 330 331 331 331 332 332 331 330 331 331 328 329 338 340 337 332 336 334 336 333 333 333 336 335 336 336 336 335 336 336 335
330 328 328 328 328 328 328 330 330 330 330 331 331 332 332 331 331 331 331 330 329 330 331 332 334 338 339 337 335 337 336 336 333 333 336 334 335 335 331 331 331 329 328
325 324 324 326 327 328 329 329 328 331 331 330 332 333 332 332 331 331 330 331 330 330 332 333 337 339 340 339 338 340 339 336 332 331 336 330 334 331 329 328 327 328 330
322 322 322 324 326 328 326 325 328 329 330 330 331 331 332 331 330 331 332 331 333 333 332 333 336 338 340 338 338 340 339 335 333 334 333 333 332 330 329 327 328 329 330
318 319 321 323 325 324 323 324 325 326 326 328 330 330 330 331 331 331 332 332 333 331 335 333 336 338 339 339 337 340 340 338 337 336 333 329 327 325 326 328 327 331 331
317 318 318 321 322 322 323 323 324 324 326 326 329 330 330 331 332 330 333 332 333 332 334 334 335 338 338 339 338 338 339 336 334 334 333 329 326 326 326 327 330 331 331
315 317 317 318 319 320 321 321 321 321 322 323 325 327 331 330 331 333 332 332 333 332 332 335 334 337 338 338 339 338 339 336 334 332 330 326 329 327 327 327 329 331 331
314 313 314 316 318 318 320 319 321 323 324 324 325 325 327 330 332 332 333 331 333 333 333 333 334 338 339 338 338 338 339 336 335 331 328 327 328 328 322 328 329 331 330
311 312 314 314 315 316 318 319 321 324 326 326 326 326 327 328 330 332 333 333 333 333 335 334 336 337 339 339 337 337 338 336 333 330 328 327 326 321 325 329 331 331 330
Wind_Speed
2 7 9 6 10 11 10 9 8 9 10 15 16 17 17 17 18 19 21 20 20 20 20 20 16 18 14 14 12 12 13 10 11 9 1 8 12 12 8 11 11 12 11
6 4 4 11 11 10 12 11 11 9 14 16 17 18 16 18 18 19 18 17 19 23 21 21 21 15 19 16 14 11 13 13 15 11 10 9 13 11 11 11 11 10 12
7 7 10 9 11 12 13 14 14 14 15 14 17 19 19 18 17 18 18 19 21 22 21 19 16 17 19 17 17 15 12 12 15 13 12 11 9 7 10 13 11 9 11
5 6 8 13 14 16 17 17 18 20 17 14 13 17 20 21 21 19 17 20 21 19 21 19 21 20 19 21 21 20 17 17 15 13 12 11 12 13 11 10 11 13 7
1 4 6 8 10 9 10 14 16 18 19 18 15 17 17 22 20 19 18 20 22 23 24 25 24 22 22 23 23 17 17 16 16 13 12 11 15 13 10 6 9 10 11
5 4 4 5 5 8 10 12 14 15 16 18 18 19 18 19 21 20 17 19 21 25 26 26 27 27 27 29 27 24 20 15 17 14 14 18 7 9 10 9 10 10 12
3 4 5 5 6 7 8 9 10 13 15 16 17 19 20 20 20 21 19 20 21 24 27 28 26 24 28 27 22 22 23 23 20 16 17 16 12 8 16 17 12 13 14
3 4 5 7 9 11 12 12 11 12 14 15 16 18 19 18 22 22 22 22 24 24 26 26 26 29 29 27 25 21 25 25 22 22 21 18 14 13 20 15 16 18 18
9 8 9 10 12 12 13 13 13 14 14 16 17 18 16 16 18 20 22 28 30 30 28 24 26 29 28 27 28 25 22 22 23 20 18 20 21 21 21 18 14 13 13
11 12 12 13 14 14 15 15 15 15 17 16 17 17 18 23 21 21 21 19 19 18 22 23 24 24 28 27 30 32 26 25 25 20 19 22 24 24 23 21 19 13 11
10 12 14 15 17 18 21 21 20 20 21 24 22 22 21 21 21 24 24 23 24 19 18 21 22 25 29 28 31 35 31 28 24 21 18 16 15 16 17 14 12 13 10
11 13 15 17 18 21 23 25 26 27 27 28 27 24 19 21 22 22 22 21 18 20 23 21 20 27 33 28 25 31 33 31 26 24 22 20 15 14 12 13 14 12 12
14 16 18 21 23 26 28 30 29 27 26 25 23 22 22 20 19 22 23 22 20 20 21 22 24 28 29 30 28 28 32 31 29 27 19 14 16 13 15 16 17 16 10
20 22 23 25 27 28 28 29 30 29 27 27 26 25 23 22 20 19 21 19 14 15 17 17 18 20 22 21 24 29 30 30 30 27 24 20 12 14 15 15 11 12 8
23 24 25 25 26 26 27 26 27 29 28 28 27 25 25 25 21 22 17 13 15 17 22 18 22 18 17 20 22 24 24 26 28 27 25 23 14 16 13 12 12 13 10
25 26 25 26 26 25 26 27 28 30 31 32 33 33 32 31 33 33 35 33 29 30 26 26 27 23 22 20 20 21 23 25 26 26 23 20 16 18 15 15 14 13 12
26 26 25 24 23 24 24 26 28 26 28 30 31 30 29 27 24 22 23 28 30 30 28 29 27 25 24 20 22 22 22 21 26 28 23 21 18 20 19 17 14 13 10
24 23 22 21 22 22 22 22 24 27 30 30 27 30 26 23 22 20 20 23 29 31 31 31 28 25 25 23 26 28 27 24 25 24 24 20 21 20 17 17 15 14 12
21 22 22 22 23 24 24 24 24 24 26 28 26 26 27 22 18 20 21 22 26 26 25 26 26 26 28 24 25 34 35 33 32 26 26 25 19 18 17 16 15 15 14
21 28 28 26 25 24 24 24 24 24 27 28 26 24 26 21 23 22 21 24 26 26 25 25 24 24 24 26 23 29 32 32 34 28 26 23 22 19 16 15 14 14 15
28 29 27 26 27 24 27 32 26 25 25 25 27 26 25 27 24 21 21 24 24 23 23 25 27 25 25 23 23 30 31 32 32 31 31 30 28 26 17 15 15 15 16
26 25 24 26 26 25 28 27 26 27 27 26 27 26 27 26 25 26 26 26 27 28 23 23 27 25 25 22 25 31 35 35 31 32 33 32 29 25 27 24 22 20 20
26 28 25 24 25 26 27 25 25 24 25 26 28 30 29 25 24 27 23 27 25 24 27 20 26 24 24 26 26 28 31 36 33 35 36 36 37 32 26 31 25 21 18
25 28 29 27 24 26 25 26 29 30 31 33 29 27 27 26 27 24 24 26 24 23 23 23 22 25 25 27 25 26 27 30 32 36 36 38 32 31 35 31 24 19 21
26 24 22 24 24 26 25 29 33 32 29 28 28 27 28 27 25 25 25 27 23 24 25 26 27 24 22 26 25 26 29 32 30 33 38 32 32 39 36 23 25 21 21
19 20 23 25 27 28 31 29 28 26 25 25 26 28 28 28 27 25 25 25 26 23 23 24 25 24 24 21 24 27 28 25 21 27 30 30 32 32 27 23 23 23 22
Wind_Direction
292 30 43 78 183 204 199 239 230 255 265 257 245 245 250 246 249 242 234 233 244 247 233 232 245 254 248 254 254 256 273 244 259 281 241 261 274 275 247 270 280 283 274
233 259 102 125 127 180 230 250 260 263 270 264 256 253 248 249 246 246 239 241 246 246 249 238 233 246 263 262 255 256 248 243 249 264 266 288 281 283 280 268 265 264 271
252 253 262 236 239 230 229 239 261 249 264 265 260 255 249 245 242 241 241 245 249 249 247 248 243 243 252 249 246 246 256 252 252 255 264 273 271 278 276 296 289 281 278
264 263 263 279 249 252 255 258 261 257 254 267 266 271 256 248 242 239 246 246 243 242 238 231 239 240 252 260 260 251 242 243 241 246 260 264 271 263 256 272 269 268 269
325 280 277 284 299 294 287 279 276 275 256 256 262 267 259 251 252 257 255 251 245 245 244 240 233 240 241 250 255 252 256 247 242 233 246 264 252 252 249 275 285 282 271
61 52 23 1 313 296 298 292 273 271 268 259 257 256 248 262 263 275 278 269 259 254 256 248 238 231 238 240 245 242 245 245 231 223 238 249 264 278 282 274 268 276 278
47 21 5 356 341 331 320 312 287 276 274 270 267 266 270 269 272 274 270 270 268 274 267 261 251 247 244 245 247 239 237 237 236 233 233 247 255 273 255 257 267 267 271
309 320 328 330 323 318 316 316 308 297 288 279 277 274 273 277 277 274 267 265 268 269 265 264 267 260 244 240 240 241 234 233 234 239 244 250 251 253 261 270 282 288 296
297 299 300 303 306 309 312 310 308 310 304 296 293 294 293 289 279 275 271 261 267 276 280 273 271 261 255 244 241 237 244 238 232 230 228 238 241 244 267 275 267 274 282
290 291 289 290 294 297 296 300 302 308 313 307 298 292 289 294 295 285 282 288 286 280 278 275 287 285 264 259 250 246 245 243 239 231 233 242 249 256 263 269 264 255 262
285 286 287 289 285 285 290 293 295 297 294 296 294 294 292 293 297 288 287 292 284 278 282 289 274 275 278 278 260 245 245 255 239 232 233 252 257 260 272 269 265 244 245
286 289 289 289 290 289 284 281 282 285 291 293 293 298 291 295 298 283 292 296 290 273 276 282 281 260 258 263 266 246 245 245 236 224 229 242 242 245 247 247 272 264 238
290 288 287 283 278 276 279 284 287 286 284 284 285 286 286 285 282 283 281 287 294 289 271 275 285 288 267 252 253 249 237 235 228 227 223 240 239 237 231 227 240 265 250
293 293 293 290 287 282 280 276 276 276 276 277 281 284 284 282 279 277 275 272 281 290 295 283 285 296 263 256 255 251 233 228 227 218 219 221 236 229 245 234 232 252 233
295 294 295 295 293 289 282 277 271 269 270 273 275 279 281 277 271 273 250 255 259 275 274 276 277 276 282 270 256 246 236 227 219 217 221 217 226 235 234 226 221 230 230
293 295 295 294 294 291 287 284 278 276 274 275 278 279 280 275 267 262 261 261 263 274 269 266 267 265 259 269 248 247 233 222 220 213 219 222 227 235 229 222 222 223 229
292 292 291 292 291 292 290 286 286 282 282 282 281 282 282 282 271 272 277 262 256 256 259 261 257 261 255 252 228 218 218 222 224 224 212 235 219 230 224 218 215 213 221
289 288 294 295 294 292 289 291 287 283 282 284 283 289 292 278 273 271 275 267 255 255 256 258 252 251 255 239 222 215 220 216 209 222 231 209 218 221 218 210 209 206 204
285 291 292 292 292 292 290 286 284 283 281 282 284 281 291 293 279 261 261 267 262 254 250 257 250 243 247 237 229 219 226 231 223 227 223 200 211 214 214 206 204 201 195
284 289 289 292 291 291 291 289 290 284 286 284 281 284 285 279 279 274 265 272 268 252 247 245 246 239 234 245 223 219 219 221 213 216 218 201 199 201 205 201 201 200 192
292 293 291 294 286 287 294 288 287 287 288 289 285 283 283 277 274 263 262 266 255 259 249 241 245 237 238 238 220 209 210 213 215 222 204 193 193 187 190 203 211 205 199
294 291 291 286 290 290 287 285 287 289 288 286 285 285 280 282 266 266 263 254 253 255 251 244 238 235 229 245 224 211 212 217 218 208 205 208 211 194 191 195 204 209 204
291 292 291 287 287 290 289 285 282 283 287 287 285 278 277 276 270 264 262 258 262 259 239 245 243 236 229 228 232 216 208 209 211 212 206 200 195 208 198 202 210 207 205
292 289 289 289 287 286 288 289 289 289 288 289 287 276 277 272 267 262 260 257 260 255 259 236 234 241 233 233 226 217 209 209 206 211 211 203 206 200 204 194 190 207 197
303 298 293 290 288 288 290 289 292 293 294 292 289 283 274 275 269 259 260 273 248 249 249 247 240 232 232 230 228 217 210 205 212 200 203 209 207 202 202 219 193 219 205
297 288 283 283 283 284 290 297 298 300 305 305 296 290 282 276 277 267 254 252 253 243 248 234 233 231 241 224 222 214 208 206 203 197 200 196 203 205 201 195 211 211 206